Year,Month,Day,Hour,Minute,Value (Times are PST for windspeed in km/hr)
2007,09,28,00,00,4.50
2007,09,28,00,01,1.70
2007,09,28,00,02,2.60
2007,09,28,00,03,3.40
2007,09,28,00,04,6.20
2007,09,28,00,05,2.00
2007,09,28,00,06,6.40
2007,09,28,00,07,5.80
2007,09,28,00,08,1.70
2007,09,28,00,09,3.10
2007,09,28,00,10,2.90
2007,09,28,00,11,5.80
2007,09,28,00,12,3.70
2007,09,28,00,13,3.70
2007,09,28,00,14,0.20
2007,09,28,00,15,1.20
2007,09,28,00,16,4.40
2007,09,28,00,17,4.70
2007,09,28,00,18,6.10
2007,09,28,00,19,1.30
2007,09,28,00,20,0.50
2007,09,28,00,21,0.90
2007,09,28,00,22,0.00
2007,09,28,00,23,0.60
2007,09,28,00,24,1.90
2007,09,28,00,25,0.40
2007,09,28,00,26,0.00
2007,09,28,00,27,0.50
2007,09,28,00,28,0.10
2007,09,28,00,29,0.60
2007,09,28,00,30,0.60
2007,09,28,00,31,0.80
2007,09,28,00,32,0.10
2007,09,28,00,33,0.20
2007,09,28,00,34,0.90
2007,09,28,00,35,0.10
2007,09,28,00,36,0.40
2007,09,28,00,37,0.00
2007,09,28,00,38,0.00
2007,09,28,00,39,0.10
2007,09,28,00,40,0.00
2007,09,28,00,41,2.10
2007,09,28,00,42,1.40
2007,09,28,00,43,2.40
2007,09,28,00,44,3.20
2007,09,28,00,45,2.40
2007,09,28,00,46,0.00
2007,09,28,00,47,1.80
2007,09,28,00,48,0.20
2007,09,28,00,49,1.10
2007,09,28,00,50,0.00
2007,09,28,00,51,0.30
2007,09,28,00,52,1.20
2007,09,28,00,53,1.60
2007,09,28,00,54,1.20
2007,09,28,00,55,1.40
2007,09,28,00,56,3.80
2007,09,28,00,57,2.50
2007,09,28,00,58,2.70
2007,09,28,00,59,1.00
2007,09,28,01,00,0.10
2007,09,28,01,01,2.20
2007,09,28,01,02,1.60
2007,09,28,01,03,1.60
2007,09,28,01,04,1.30
2007,09,28,01,05,2.00
2007,09,28,01,06,5.90
2007,09,28,01,07,7.70
2007,09,28,01,08,4.60
2007,09,28,01,09,0.70
2007,09,28,01,10,1.20
2007,09,28,01,11,2.70
2007,09,28,01,12,1.90
2007,09,28,01,13,2.00
2007,09,28,01,14,0.20
2007,09,28,01,15,1.10
2007,09,28,01,16,1.50
2007,09,28,01,17,3.00
2007,09,28,01,18,2.40
2007,09,28,01,19,3.20
2007,09,28,01,20,2.80
2007,09,28,01,21,2.30
2007,09,28,01,22,1.40
2007,09,28,01,23,0.70
2007,09,28,01,24,2.70
2007,09,28,01,25,2.90
2007,09,28,01,26,1.00
2007,09,28,01,27,0.10
2007,09,28,01,28,1.60
2007,09,28,01,29,1.60
2007,09,28,01,30,2.20
2007,09,28,01,31,1.40
2007,09,28,01,32,0.10
2007,09,28,01,33,0.40
2007,09,28,01,34,0.00
2007,09,28,01,35,1.90
2007,09,28,01,36,6.10
2007,09,28,01,37,5.30
2007,09,28,01,38,1.10
2007,09,28,01,39,2.80
2007,09,28,01,40,4.40
2007,09,28,01,41,2.20
2007,09,28,01,42,4.40
2007,09,28,01,43,2.60
2007,09,28,01,44,2.30
2007,09,28,01,45,1.70
2007,09,28,01,46,1.30
2007,09,28,01,47,2.50
2007,09,28,01,48,0.10
2007,09,28,01,49,0.00
2007,09,28,01,50,4.40
2007,09,28,01,51,3.80
2007,09,28,01,52,4.00
2007,09,28,01,53,2.80
2007,09,28,01,54,1.00
2007,09,28,01,55,1.70
2007,09,28,01,56,0.40
2007,09,28,01,57,0.10
2007,09,28,01,58,0.90
2007,09,28,01,59,0.90
2007,09,28,02,00,2.00
2007,09,28,02,01,2.90
2007,09,28,02,02,4.20
2007,09,28,02,03,3.80
2007,09,28,02,04,2.20
2007,09,28,02,05,0.50
2007,09,28,02,06,2.40
2007,09,28,02,07,3.30
2007,09,28,02,08,2.50
2007,09,28,02,09,0.50
2007,09,28,02,10,1.50
2007,09,28,02,11,2.30
2007,09,28,02,12,2.30
2007,09,28,02,13,3.20
2007,09,28,02,14,4.30
2007,09,28,02,15,6.50
2007,09,28,02,16,1.50
2007,09,28,02,17,0.30
2007,09,28,02,18,2.00
2007,09,28,02,19,2.90
2007,09,28,02,20,2.50
2007,09,28,02,21,7.30
2007,09,28,02,22,4.50
2007,09,28,02,23,1.20
2007,09,28,02,24,4.80
2007,09,28,02,25,3.90
2007,09,28,02,26,1.50
2007,09,28,02,27,3.10
2007,09,28,02,28,2.90
2007,09,28,02,29,1.50
2007,09,28,02,30,3.00
2007,09,28,02,31,2.50
2007,09,28,02,32,2.40
2007,09,28,02,33,1.90
2007,09,28,02,34,7.80
2007,09,28,02,35,1.70
2007,09,28,02,36,0.80
2007,09,28,02,37,3.50
2007,09,28,02,38,5.20
2007,09,28,02,39,5.40
2007,09,28,02,40,4.70
2007,09,28,02,41,7.40
2007,09,28,02,42,2.80
2007,09,28,02,43,3.70
2007,09,28,02,44,2.10
2007,09,28,02,45,4.20
2007,09,28,02,46,0.20
2007,09,28,02,47,4.30
2007,09,28,02,48,2.20
2007,09,28,02,49,1.40
2007,09,28,02,50,3.50
2007,09,28,02,51,3.10
2007,09,28,02,52,0.00
2007,09,28,02,53,4.80
2007,09,28,02,54,1.70
2007,09,28,02,55,3.70
2007,09,28,02,56,0.60
2007,09,28,02,57,2.10
2007,09,28,02,58,4.80
2007,09,28,02,59,0.00
2007,09,28,03,00,0.60
2007,09,28,03,01,3.40
2007,09,28,03,02,2.30
2007,09,28,03,03,2.80
2007,09,28,03,04,1.30
2007,09,28,03,05,0.00
2007,09,28,03,06,0.00
2007,09,28,03,07,2.60
2007,09,28,03,08,3.20
2007,09,28,03,09,2.70
2007,09,28,03,10,3.50
2007,09,28,03,11,5.70
2007,09,28,03,12,3.90
2007,09,28,03,13,0.10
2007,09,28,03,14,3.70
2007,09,28,03,15,5.10
2007,09,28,03,16,0.40
2007,09,28,03,17,0.00
2007,09,28,03,18,0.00
2007,09,28,03,19,1.90
2007,09,28,03,20,1.60
2007,09,28,03,21,1.60
2007,09,28,03,22,1.00
2007,09,28,03,23,0.00
2007,09,28,03,24,0.40
2007,09,28,03,25,0.60
2007,09,28,03,26,0.00
2007,09,28,03,27,0.00
2007,09,28,03,28,0.00
2007,09,28,03,29,0.00
2007,09,28,03,30,1.60
2007,09,28,03,31,0.00
2007,09,28,03,32,0.10
2007,09,28,03,33,0.00
2007,09,28,03,34,0.00
2007,09,28,03,35,2.10
2007,09,28,03,36,0.70
2007,09,28,03,37,0.40
2007,09,28,03,38,1.10
2007,09,28,03,39,0.10
2007,09,28,03,40,1.30
2007,09,28,03,41,0.80
2007,09,28,03,42,0.00
2007,09,28,03,43,0.10
2007,09,28,03,44,0.00
2007,09,28,03,45,0.00
2007,09,28,03,46,0.00
2007,09,28,03,47,0.00
2007,09,28,03,48,0.00
2007,09,28,03,49,0.00
2007,09,28,03,50,0.00
2007,09,28,03,51,0.00
2007,09,28,03,52,0.30
2007,09,28,03,53,0.20
2007,09,28,03,54,0.00
2007,09,28,03,55,1.90
2007,09,28,03,56,2.40
2007,09,28,03,57,0.70
2007,09,28,03,58,2.10
2007,09,28,03,59,0.10
2007,09,28,04,00,1.00
2007,09,28,04,01,1.10
2007,09,28,04,02,1.60
2007,09,28,04,03,2.80
2007,09,28,04,04,1.40
2007,09,28,04,05,0.10
2007,09,28,04,06,3.70
2007,09,28,04,07,2.30
2007,09,28,04,08,0.80
2007,09,28,04,09,0.00
2007,09,28,04,10,0.00
2007,09,28,04,11,0.00
2007,09,28,04,12,0.00
2007,09,28,04,13,0.00
2007,09,28,04,14,0.00
2007,09,28,04,15,0.00
2007,09,28,04,16,0.00
2007,09,28,04,17,0.00
2007,09,28,04,18,0.00
2007,09,28,04,19,2.80
2007,09,28,04,20,2.00
2007,09,28,04,21,1.10
2007,09,28,04,22,0.10
2007,09,28,04,23,0.00
2007,09,28,04,24,0.00
2007,09,28,04,25,0.00
2007,09,28,04,26,0.00
2007,09,28,04,27,0.00
2007,09,28,04,28,0.00
2007,09,28,04,29,0.00
2007,09,28,04,30,1.30
2007,09,28,04,31,0.70
2007,09,28,04,32,1.90
2007,09,28,04,33,0.00
2007,09,28,04,34,0.00
2007,09,28,04,35,0.00
2007,09,28,04,36,0.00
2007,09,28,04,37,0.00
2007,09,28,04,38,0.90
2007,09,28,04,39,0.00
2007,09,28,04,40,0.60
2007,09,28,04,41,0.40
2007,09,28,04,42,0.00
2007,09,28,04,43,0.40
2007,09,28,04,44,0.80
2007,09,28,04,45,2.30
2007,09,28,04,46,2.00
2007,09,28,04,47,1.30
2007,09,28,04,48,0.40
2007,09,28,04,49,2.00
2007,09,28,04,50,0.10
2007,09,28,04,51,0.00
2007,09,28,04,52,1.70
2007,09,28,04,53,2.10
2007,09,28,04,54,0.90
2007,09,28,04,55,0.00
2007,09,28,04,56,0.00
2007,09,28,04,57,0.00
2007,09,28,04,58,0.00
2007,09,28,04,59,0.00
2007,09,28,05,00,0.00
2007,09,28,05,01,0.00
2007,09,28,05,02,0.00
2007,09,28,05,03,0.00
2007,09,28,05,04,0.00
2007,09,28,05,05,0.20
2007,09,28,05,06,2.30
2007,09,28,05,07,0.10
2007,09,28,05,08,0.00
2007,09,28,05,09,0.00
2007,09,28,05,10,0.00
2007,09,28,05,11,0.00
2007,09,28,05,12,1.90
2007,09,28,05,13,0.50
2007,09,28,05,14,0.40
2007,09,28,05,15,3.40
2007,09,28,05,16,0.10
2007,09,28,05,17,0.00
2007,09,28,05,18,0.10
2007,09,28,05,19,0.00
2007,09,28,05,20,0.00
2007,09,28,05,21,0.00
2007,09,28,05,22,0.60
2007,09,28,05,23,2.10
2007,09,28,05,24,0.30
2007,09,28,05,25,1.00
2007,09,28,05,26,0.30
2007,09,28,05,27,2.00
2007,09,28,05,28,1.40
2007,09,28,05,29,0.00
2007,09,28,05,30,1.70
2007,09,28,05,31,0.60
2007,09,28,05,32,2.20
2007,09,28,05,33,1.40
2007,09,28,05,34,0.10
2007,09,28,05,35,1.40
2007,09,28,05,36,1.10
2007,09,28,05,37,0.00
2007,09,28,05,38,0.00
2007,09,28,05,39,0.00
2007,09,28,05,40,0.00
2007,09,28,05,41,0.00
2007,09,28,05,42,0.00
2007,09,28,05,43,0.00
2007,09,28,05,44,0.00
2007,09,28,05,45,0.00
2007,09,28,05,46,0.00
2007,09,28,05,47,0.00
2007,09,28,05,48,0.00
2007,09,28,05,49,0.90
2007,09,28,05,50,0.00
2007,09,28,05,51,0.00
2007,09,28,05,52,0.00
2007,09,28,05,53,0.00
2007,09,28,05,54,0.80
2007,09,28,05,55,2.60
2007,09,28,05,56,1.10
2007,09,28,05,57,0.40
2007,09,28,05,58,0.10
2007,09,28,05,59,0.00
2007,09,28,06,00,0.00
2007,09,28,06,01,0.00
2007,09,28,06,02,0.00
2007,09,28,06,03,0.00
2007,09,28,06,04,0.00
2007,09,28,06,05,0.60
2007,09,28,06,06,0.80
2007,09,28,06,07,0.00
2007,09,28,06,08,0.00
2007,09,28,06,09,0.00
2007,09,28,06,10,0.00
2007,09,28,06,11,0.00
2007,09,28,06,12,0.20
2007,09,28,06,13,1.90
2007,09,28,06,14,0.70
2007,09,28,06,15,1.90
2007,09,28,06,16,2.10
2007,09,28,06,17,1.20
2007,09,28,06,18,1.70
2007,09,28,06,19,1.80
2007,09,28,06,20,2.90
2007,09,28,06,21,1.90
2007,09,28,06,22,0.80
2007,09,28,06,23,1.50
2007,09,28,06,24,2.50
2007,09,28,06,25,1.40
2007,09,28,06,26,0.00
2007,09,28,06,27,0.10
2007,09,28,06,28,0.10
2007,09,28,06,29,1.00
2007,09,28,06,30,0.10
2007,09,28,06,31,0.00
2007,09,28,06,32,0.00
2007,09,28,06,33,1.20
2007,09,28,06,34,0.90
2007,09,28,06,35,2.10
2007,09,28,06,36,1.10
2007,09,28,06,37,1.20
2007,09,28,06,38,2.10
2007,09,28,06,39,1.30
2007,09,28,06,40,0.10
2007,09,28,06,41,0.00
2007,09,28,06,42,0.00
2007,09,28,06,43,0.00
2007,09,28,06,44,0.00
2007,09,28,06,45,0.10
2007,09,28,06,46,0.00
2007,09,28,06,47,0.00
2007,09,28,06,48,0.00
2007,09,28,06,49,0.00
2007,09,28,06,50,0.00
2007,09,28,06,51,0.00
2007,09,28,06,52,0.00
2007,09,28,06,53,0.90
2007,09,28,06,54,0.20
2007,09,28,06,55,0.00
2007,09,28,06,56,0.70
2007,09,28,06,57,0.30
2007,09,28,06,58,0.00
2007,09,28,06,59,0.20
2007,09,28,07,00,0.00
2007,09,28,07,01,0.00
2007,09,28,07,02,0.60
2007,09,28,07,03,0.00
2007,09,28,07,04,0.00
2007,09,28,07,05,0.00
2007,09,28,07,06,0.00
2007,09,28,07,07,0.00
2007,09,28,07,08,0.00
2007,09,28,07,09,0.00
2007,09,28,07,10,0.00
2007,09,28,07,11,0.00
2007,09,28,07,12,0.00
2007,09,28,07,13,0.10
2007,09,28,07,14,0.00
2007,09,28,07,15,0.00
2007,09,28,07,16,0.00
2007,09,28,07,17,0.00
2007,09,28,07,18,2.00
2007,09,28,07,19,1.80
2007,09,28,07,20,1.80
2007,09,28,07,21,0.00
2007,09,28,07,22,0.70
2007,09,28,07,23,0.00
2007,09,28,07,24,0.10
2007,09,28,07,25,0.00
2007,09,28,07,26,3.80
2007,09,28,07,27,0.60
2007,09,28,07,28,0.00
2007,09,28,07,29,0.40
2007,09,28,07,30,2.20
2007,09,28,07,31,0.30
2007,09,28,07,32,0.10
2007,09,28,07,33,0.00
2007,09,28,07,34,0.00
2007,09,28,07,35,1.50
2007,09,28,07,36,0.00
2007,09,28,07,37,0.10
2007,09,28,07,38,0.10
2007,09,28,07,39,0.10
2007,09,28,07,40,2.30
2007,09,28,07,41,2.30
2007,09,28,07,42,3.30
2007,09,28,07,43,3.80
2007,09,28,07,44,1.80
2007,09,28,07,45,2.00
2007,09,28,07,46,0.00
2007,09,28,07,47,0.00
2007,09,28,07,48,0.00
2007,09,28,07,49,0.10
2007,09,28,07,50,1.10
2007,09,28,07,51,0.40
2007,09,28,07,52,0.00
2007,09,28,07,53,0.00
2007,09,28,07,54,0.10
2007,09,28,07,55,3.00
2007,09,28,07,56,2.50
2007,09,28,07,57,1.50
2007,09,28,07,58,0.10
2007,09,28,07,59,0.30
2007,09,28,08,00,2.10
2007,09,28,08,01,0.00
2007,09,28,08,02,0.00
2007,09,28,08,03,0.00
2007,09,28,08,04,0.00
2007,09,28,08,05,0.00
2007,09,28,08,06,0.00
2007,09,28,08,07,0.90
2007,09,28,08,08,2.40
2007,09,28,08,09,2.70
2007,09,28,08,10,0.30
2007,09,28,08,11,1.50
2007,09,28,08,12,0.10
2007,09,28,08,13,0.10
2007,09,28,08,14,0.00
2007,09,28,08,15,0.00
2007,09,28,08,16,0.10
2007,09,28,08,17,1.00
2007,09,28,08,18,0.10
2007,09,28,08,19,0.10
2007,09,28,08,20,1.40
2007,09,28,08,21,0.60
2007,09,28,08,22,0.20
2007,09,28,08,23,0.00
2007,09,28,08,24,0.10
2007,09,28,08,25,0.00
2007,09,28,08,26,0.60
2007,09,28,08,27,0.30
2007,09,28,08,28,2.60
2007,09,28,08,29,0.20
2007,09,28,08,30,0.00
2007,09,28,08,31,0.30
2007,09,28,08,32,1.40
2007,09,28,08,33,1.90
2007,09,28,08,34,1.50
2007,09,28,08,35,0.00
2007,09,28,08,36,0.00
2007,09,28,08,37,4.10
2007,09,28,08,38,0.40
2007,09,28,08,39,0.00
2007,09,28,08,40,0.00
2007,09,28,08,41,1.20
2007,09,28,08,42,1.40
2007,09,28,08,43,0.10
2007,09,28,08,44,4.00
2007,09,28,08,45,2.70
2007,09,28,08,46,0.10
2007,09,28,08,47,3.50
2007,09,28,08,48,3.00
2007,09,28,08,49,1.20
2007,09,28,08,50,2.50
2007,09,28,08,51,3.90
2007,09,28,08,52,2.40
2007,09,28,08,53,0.50
2007,09,28,08,54,3.50
2007,09,28,08,55,2.50
2007,09,28,08,56,2.60
2007,09,28,08,57,3.60
2007,09,28,08,58,0.80
2007,09,28,08,59,4.40
2007,09,28,09,00,5.10
2007,09,28,09,01,4.60
2007,09,28,09,02,4.30
2007,09,28,09,03,4.70
2007,09,28,09,04,3.70
2007,09,28,09,05,3.40
2007,09,28,09,06,1.50
2007,09,28,09,07,2.20
2007,09,28,09,08,3.00
2007,09,28,09,09,1.80
2007,09,28,09,10,0.40
2007,09,28,09,11,0.10
2007,09,28,09,12,2.00
2007,09,28,09,13,6.30
2007,09,28,09,14,7.90
2007,09,28,09,15,6.40
2007,09,28,09,16,2.80
2007,09,28,09,17,0.90
2007,09,28,09,18,0.30
2007,09,28,09,19,2.00
2007,09,28,09,20,3.10
2007,09,28,09,21,3.90
2007,09,28,09,22,5.70
2007,09,28,09,23,5.60
2007,09,28,09,24,8.30
2007,09,28,09,25,5.40
2007,09,28,09,26,6.00
2007,09,28,09,27,1.80
2007,09,28,09,28,4.90
2007,09,28,09,29,2.70
2007,09,28,09,30,6.50
2007,09,28,09,31,4.70
2007,09,28,09,32,4.10
2007,09,28,09,33,6.70
2007,09,28,09,34,5.10
2007,09,28,09,35,2.90
2007,09,28,09,36,4.60
2007,09,28,09,37,6.90
2007,09,28,09,38,4.80
2007,09,28,09,39,6.80
2007,09,28,09,40,5.90
2007,09,28,09,41,7.20
2007,09,28,09,42,4.80
2007,09,28,09,43,2.60
2007,09,28,09,44,4.10
2007,09,28,09,45,6.00
2007,09,28,09,46,4.40
2007,09,28,09,47,3.60
2007,09,28,09,48,4.00
2007,09,28,09,49,3.40
2007,09,28,09,50,0.30
2007,09,28,09,51,3.30
2007,09,28,09,52,5.80
2007,09,28,09,53,4.50
2007,09,28,09,54,10.20
2007,09,28,09,55,6.00
2007,09,28,09,56,3.00
2007,09,28,09,57,5.00
2007,09,28,09,58,2.60
2007,09,28,09,59,2.60
2007,09,28,10,00,4.30
2007,09,28,10,01,4.00
2007,09,28,10,02,7.50
2007,09,28,10,03,7.70
2007,09,28,10,04,4.40
2007,09,28,10,05,8.80
2007,09,28,10,06,3.80
2007,09,28,10,07,3.50
2007,09,28,10,08,3.80
2007,09,28,10,09,4.60
2007,09,28,10,10,4.30
2007,09,28,10,11,5.80
2007,09,28,10,12,4.60
2007,09,28,10,13,6.10
2007,09,28,10,14,5.00
2007,09,28,10,15,7.70
2007,09,28,10,16,7.00
2007,09,28,10,17,4.30
2007,09,28,10,18,4.30
2007,09,28,10,19,6.60
2007,09,28,10,20,5.70
2007,09,28,10,21,1.80
2007,09,28,10,22,2.40
2007,09,28,10,23,1.40
2007,09,28,10,24,3.60
2007,09,28,10,25,8.00
2007,09,28,10,26,11.50
2007,09,28,10,27,6.50
2007,09,28,10,28,4.60
2007,09,28,10,29,10.70
2007,09,28,10,30,6.80
2007,09,28,10,31,7.10
2007,09,28,10,32,4.20
2007,09,28,10,33,7.70
2007,09,28,10,34,3.10
2007,09,28,10,35,3.10
2007,09,28,10,36,4.50
2007,09,28,10,37,3.00
2007,09,28,10,38,5.40
2007,09,28,10,39,8.20
2007,09,28,10,40,2.60
2007,09,28,10,41,7.10
2007,09,28,10,42,5.50
2007,09,28,10,43,7.80
2007,09,28,10,44,6.60
2007,09,28,10,45,4.40
2007,09,28,10,46,1.60
2007,09,28,10,47,4.00
2007,09,28,10,48,7.60
2007,09,28,10,49,3.60
2007,09,28,10,50,1.10
2007,09,28,10,51,3.50
2007,09,28,10,52,5.00
2007,09,28,10,53,3.40
2007,09,28,10,54,3.60
2007,09,28,10,55,3.10
2007,09,28,10,56,5.10
2007,09,28,10,57,0.40
2007,09,28,10,58,1.20
2007,09,28,10,59,4.20
2007,09,28,11,00,4.70
2007,09,28,11,01,5.70
2007,09,28,11,02,4.30
2007,09,28,11,03,2.50
2007,09,28,11,04,0.80
2007,09,28,11,05,6.20
2007,09,28,11,06,6.20
2007,09,28,11,07,6.90
2007,09,28,11,08,2.20
2007,09,28,11,09,4.50
2007,09,28,11,10,4.00
2007,09,28,11,11,2.80
2007,09,28,11,12,4.70
2007,09,28,11,13,7.50
2007,09,28,11,14,3.10
2007,09,28,11,15,7.20
2007,09,28,11,16,5.30
2007,09,28,11,17,3.40
2007,09,28,11,18,9.00
2007,09,28,11,19,3.70
2007,09,28,11,20,11.70
2007,09,28,11,21,5.10
2007,09,28,11,22,8.90
2007,09,28,11,23,7.80
2007,09,28,11,24,4.70
2007,09,28,11,25,8.10
2007,09,28,11,26,7.60
2007,09,28,11,27,6.50
2007,09,28,11,28,2.80
2007,09,28,11,29,3.60
2007,09,28,11,30,3.20
2007,09,28,11,31,0.80
2007,09,28,11,32,3.00
2007,09,28,11,33,0.70
2007,09,28,11,34,1.00
2007,09,28,11,35,3.80
2007,09,28,11,36,3.60
2007,09,28,11,37,7.50
2007,09,28,11,38,8.00
2007,09,28,11,39,6.20
2007,09,28,11,40,6.80
2007,09,28,11,41,4.40
2007,09,28,11,42,7.10
2007,09,28,11,43,4.70
2007,09,28,11,44,6.10
2007,09,28,11,45,4.30
2007,09,28,11,46,5.30
2007,09,28,11,47,4.40
2007,09,28,11,48,7.20
2007,09,28,11,49,5.50
2007,09,28,11,50,5.60
2007,09,28,11,51,3.70
2007,09,28,11,52,4.60
2007,09,28,11,53,7.70
2007,09,28,11,54,4.50
2007,09,28,11,55,2.80
2007,09,28,11,56,3.40
2007,09,28,11,57,3.70
2007,09,28,11,58,5.40
2007,09,28,11,59,5.70
2007,09,28,12,00,5.50
2007,09,28,12,01,5.70
2007,09,28,12,02,5.50
2007,09,28,12,03,4.10
2007,09,28,12,04,3.20
2007,09,28,12,05,7.00
2007,09,28,12,06,5.70
2007,09,28,12,07,6.20
2007,09,28,12,08,5.10
2007,09,28,12,09,4.80
2007,09,28,12,10,5.60
2007,09,28,12,11,8.40
2007,09,28,12,12,6.10
2007,09,28,12,13,7.40
2007,09,28,12,14,7.20
2007,09,28,12,15,5.60
2007,09,28,12,16,3.90
2007,09,28,12,17,1.40
2007,09,28,12,18,1.50
2007,09,28,12,19,0.20
2007,09,28,12,20,0.00
2007,09,28,12,21,0.60
2007,09,28,12,22,0.40
2007,09,28,12,23,0.00
2007,09,28,12,24,0.00
2007,09,28,12,25,0.00
2007,09,28,12,26,2.90
2007,09,28,12,27,3.90
2007,09,28,12,28,6.50
2007,09,28,12,29,6.50
2007,09,28,12,30,3.70
2007,09,28,12,31,3.90
2007,09,28,12,32,1.60
2007,09,28,12,33,0.90
2007,09,28,12,34,0.10
2007,09,28,12,35,0.00
2007,09,28,12,36,0.80
2007,09,28,12,37,1.30
2007,09,28,12,38,0.70
2007,09,28,12,39,2.70
2007,09,28,12,40,3.80
2007,09,28,12,41,1.50
2007,09,28,12,42,2.80
2007,09,28,12,43,1.50
2007,09,28,12,44,0.40
2007,09,28,12,45,0.00
2007,09,28,12,46,1.10
2007,09,28,12,47,1.20
2007,09,28,12,48,0.00
2007,09,28,12,49,0.20
2007,09,28,12,50,3.00
2007,09,28,12,51,0.00
2007,09,28,12,52,1.40
2007,09,28,12,53,0.30
2007,09,28,12,54,2.20
2007,09,28,12,55,1.00
2007,09,28,12,56,0.30
2007,09,28,12,57,3.70
2007,09,28,12,58,3.10
2007,09,28,12,59,0.60
2007,09,28,13,00,2.30
2007,09,28,13,01,0.40
2007,09,28,13,02,2.00
2007,09,28,13,03,2.50
2007,09,28,13,04,3.30
2007,09,28,13,05,5.60
2007,09,28,13,06,3.20
2007,09,28,13,07,3.20
2007,09,28,13,08,1.90
2007,09,28,13,09,5.50
2007,09,28,13,10,3.00
2007,09,28,13,11,6.30
2007,09,28,13,12,7.80
2007,09,28,13,13,4.50
2007,09,28,13,14,9.20
2007,09,28,13,15,6.90
2007,09,28,13,16,8.70
2007,09,28,13,17,4.20
2007,09,28,13,18,10.90
2007,09,28,13,19,4.10
2007,09,28,13,20,5.30
2007,09,28,13,21,4.30
2007,09,28,13,22,3.90
2007,09,28,13,23,4.00
2007,09,28,13,24,6.10
2007,09,28,13,25,3.80
2007,09,28,13,26,3.80
2007,09,28,13,27,5.20
2007,09,28,13,28,2.40
2007,09,28,13,29,4.60
2007,09,28,13,30,8.10
2007,09,28,13,31,4.40
2007,09,28,13,32,1.90
2007,09,28,13,33,3.30
2007,09,28,13,34,0.80
2007,09,28,13,35,0.70
2007,09,28,13,36,6.90
2007,09,28,13,37,7.20
2007,09,28,13,38,4.30
2007,09,28,13,39,5.90
2007,09,28,13,40,5.80
2007,09,28,13,41,4.00
2007,09,28,13,42,3.50
2007,09,28,13,43,7.00
2007,09,28,13,44,5.70
2007,09,28,13,45,10.20
2007,09,28,13,46,5.70
2007,09,28,13,47,4.10
2007,09,28,13,48,5.50
2007,09,28,13,49,3.70
2007,09,28,13,50,9.00
2007,09,28,13,51,2.70
2007,09,28,13,52,8.50
2007,09,28,13,53,4.80
2007,09,28,13,54,9.70
2007,09,28,13,55,17.80
2007,09,28,13,56,16.20
2007,09,28,13,57,11.00
2007,09,28,13,58,7.90
2007,09,28,13,59,7.30
2007,09,28,14,00,5.70
2007,09,28,14,01,11.30
2007,09,28,14,02,4.40
2007,09,28,14,03,11.10
2007,09,28,14,04,11.00
2007,09,28,14,05,11.10
2007,09,28,14,06,6.10
2007,09,28,14,07,12.60
2007,09,28,14,08,7.80
2007,09,28,14,09,6.00
2007,09,28,14,10,4.90
2007,09,28,14,11,6.40
2007,09,28,14,12,6.70
2007,09,28,14,13,5.60
2007,09,28,14,14,3.60
2007,09,28,14,15,6.00
2007,09,28,14,16,6.40
2007,09,28,14,17,6.40
2007,09,28,14,18,3.20
2007,09,28,14,19,2.60
2007,09,28,14,20,8.90
2007,09,28,14,21,7.60
2007,09,28,14,22,4.70
2007,09,28,14,23,4.20
2007,09,28,14,24,7.50
2007,09,28,14,25,10.20
2007,09,28,14,26,6.40
2007,09,28,14,27,5.10
2007,09,28,14,28,5.00
2007,09,28,14,29,6.40
2007,09,28,14,30,8.10
2007,09,28,14,31,9.50
2007,09,28,14,32,5.20
2007,09,28,14,33,6.70
2007,09,28,14,34,8.00
2007,09,28,14,35,3.10
2007,09,28,14,36,3.80
2007,09,28,14,37,5.50
2007,09,28,14,38,8.30
2007,09,28,14,39,4.40
2007,09,28,14,40,4.70
2007,09,28,14,41,8.00
2007,09,28,14,42,11.50
2007,09,28,14,43,7.20
2007,09,28,14,44,6.20
2007,09,28,14,45,3.20
2007,09,28,14,46,6.20
2007,09,28,14,47,9.30
2007,09,28,14,48,3.80
2007,09,28,14,49,7.40
2007,09,28,14,50,6.40
2007,09,28,14,51,11.70
2007,09,28,14,52,7.00
2007,09,28,14,53,4.00
2007,09,28,14,54,2.00
2007,09,28,14,55,5.60
2007,09,28,14,56,10.80
2007,09,28,14,57,7.50
2007,09,28,14,58,5.20
2007,09,28,14,59,8.80
2007,09,28,15,00,7.50
2007,09,28,15,01,4.80
2007,09,28,15,02,4.40
2007,09,28,15,03,6.90
2007,09,28,15,04,11.60
2007,09,28,15,05,3.40
2007,09,28,15,06,3.30
2007,09,28,15,07,7.00
2007,09,28,15,08,5.50
2007,09,28,15,09,5.10
2007,09,28,15,10,2.10
2007,09,28,15,11,6.00
2007,09,28,15,12,12.80
2007,09,28,15,13,13.80
2007,09,28,15,14,6.10
2007,09,28,15,15,6.70
2007,09,28,15,16,9.00
2007,09,28,15,17,10.70
2007,09,28,15,18,8.70
2007,09,28,15,19,4.00
2007,09,28,15,20,4.10
2007,09,28,15,21,7.90
2007,09,28,15,22,10.10
2007,09,28,15,23,7.60
2007,09,28,15,24,8.90
2007,09,28,15,25,6.40
2007,09,28,15,26,2.80
2007,09,28,15,27,10.30
2007,09,28,15,28,8.80
2007,09,28,15,29,7.70
2007,09,28,15,30,8.40
2007,09,28,15,31,9.30
2007,09,28,15,32,4.30
2007,09,28,15,33,2.50
2007,09,28,15,34,3.70
2007,09,28,15,35,6.60
2007,09,28,15,36,2.60
2007,09,28,15,37,4.50
2007,09,28,15,38,4.40
2007,09,28,15,39,2.30
2007,09,28,15,40,5.30
2007,09,28,15,41,6.40
2007,09,28,15,42,5.90
2007,09,28,15,43,4.70
2007,09,28,15,44,5.80
2007,09,28,15,45,3.00
2007,09,28,15,46,1.00
2007,09,28,15,47,2.00
2007,09,28,15,48,3.10
2007,09,28,15,49,2.60
2007,09,28,15,50,0.80
2007,09,28,15,51,6.40
2007,09,28,15,52,4.30
2007,09,28,15,53,4.70
2007,09,28,15,54,4.20
2007,09,28,15,55,3.90
2007,09,28,15,56,3.40
2007,09,28,15,57,0.50
2007,09,28,15,58,1.00
2007,09,28,15,59,2.00
2007,09,28,16,00,3.90
2007,09,28,16,01,5.90
2007,09,28,16,02,6.10
2007,09,28,16,03,7.30
2007,09,28,16,04,5.60
2007,09,28,16,05,3.10
2007,09,28,16,06,4.80
2007,09,28,16,07,3.50
2007,09,28,16,08,3.50
2007,09,28,16,09,4.80
2007,09,28,16,10,5.20
2007,09,28,16,11,7.40
2007,09,28,16,12,5.70
2007,09,28,16,13,6.00
2007,09,28,16,14,5.20
2007,09,28,16,15,3.50
2007,09,28,16,16,2.00
2007,09,28,16,17,6.80
2007,09,28,16,18,7.10
2007,09,28,16,19,5.40
2007,09,28,16,20,1.80
2007,09,28,16,21,6.20
2007,09,28,16,22,5.50
2007,09,28,16,23,1.40
2007,09,28,16,24,3.00
2007,09,28,16,25,4.70
2007,09,28,16,26,5.60
2007,09,28,16,27,5.00
2007,09,28,16,28,5.30
2007,09,28,16,29,5.30
2007,09,28,16,30,6.10
2007,09,28,16,31,10.30
2007,09,28,16,32,5.10
2007,09,28,16,33,6.20
2007,09,28,16,34,6.20
2007,09,28,16,35,7.40
2007,09,28,16,36,8.10
2007,09,28,16,37,5.70
2007,09,28,16,38,2.30
2007,09,28,16,39,7.10
2007,09,28,16,40,8.90
2007,09,28,16,41,7.30
2007,09,28,16,42,8.40
2007,09,28,16,43,7.00
2007,09,28,16,44,5.30
2007,09,28,16,45,3.80
2007,09,28,16,46,4.20
2007,09,28,16,47,3.40
2007,09,28,16,48,0.70
2007,09,28,16,49,2.00
2007,09,28,16,50,3.20
2007,09,28,16,51,4.10
2007,09,28,16,52,4.40
2007,09,28,16,53,5.20
2007,09,28,16,54,3.70
2007,09,28,16,55,7.00
2007,09,28,16,56,8.10
2007,09,28,16,57,8.10
2007,09,28,16,58,8.10
2007,09,28,16,59,4.10
2007,09,28,17,00,1.30
2007,09,28,17,01,8.80
2007,09,28,17,02,11.60
2007,09,28,17,03,10.90
2007,09,28,17,04,2.00
2007,09,28,17,05,5.60
2007,09,28,17,06,2.90
2007,09,28,17,07,3.60
2007,09,28,17,08,6.60
2007,09,28,17,09,9.20
2007,09,28,17,10,8.30
2007,09,28,17,11,5.30
2007,09,28,17,12,7.00
2007,09,28,17,13,9.90
2007,09,28,17,14,7.90
2007,09,28,17,15,5.80
2007,09,28,17,16,5.50
2007,09,28,17,17,4.20
2007,09,28,17,18,4.60
2007,09,28,17,19,8.00
2007,09,28,17,20,8.60
2007,09,28,17,21,6.40
2007,09,28,17,22,4.50
2007,09,28,17,23,5.40
2007,09,28,17,24,9.30
2007,09,28,17,25,4.00
2007,09,28,17,26,7.30
2007,09,28,17,27,6.60
2007,09,28,17,28,3.80
2007,09,28,17,29,11.10
2007,09,28,17,30,8.00
2007,09,28,17,31,2.50
2007,09,28,17,32,4.40
2007,09,28,17,33,8.40
2007,09,28,17,34,8.00
2007,09,28,17,35,11.40
2007,09,28,17,36,9.00
2007,09,28,17,37,4.90
2007,09,28,17,38,6.70
2007,09,28,17,39,6.40
2007,09,28,17,40,5.00
2007,09,28,17,41,6.40
2007,09,28,17,42,9.70
2007,09,28,17,43,8.70
2007,09,28,17,44,9.70
2007,09,28,17,45,8.50
2007,09,28,17,46,4.60
2007,09,28,17,47,6.70
2007,09,28,17,48,6.90
2007,09,28,17,49,3.70
2007,09,28,17,50,6.60
2007,09,28,17,51,9.80
2007,09,28,17,52,5.40
2007,09,28,17,53,5.30
2007,09,28,17,54,6.00
2007,09,28,17,55,9.70
2007,09,28,17,56,8.40
2007,09,28,17,57,6.60
2007,09,28,17,58,7.40
2007,09,28,17,59,3.80
2007,09,28,18,00,6.10
2007,09,28,18,01,4.60
2007,09,28,18,02,6.10
2007,09,28,18,03,7.50
2007,09,28,18,04,4.30
2007,09,28,18,05,7.80